This is the latest recevied weather packets stored in our database for station/object GW4003. If no packets are shown the sender has not sent any weather packets the latest 10 day(s).
| Time | Temp. | Humidity | Pressure | Rain* | Wind** | Luminosity | Snow |
|---|---|---|---|---|---|---|---|
| 1788536331 | 24.44° C | 30% | 1018.9 hPa | 0 mm | - | - | - |
| 1788536028 | 24.44° C | 31% | 1019 hPa | 0 mm | - | - | - |
| 1788535724 | 23.89° C | 33% | 1019 hPa | 0 mm | - | - | - |
| 1788535420 | 23.89° C | 35% | 1019 hPa | 0 mm | - | - | - |
| 1788535116 | 23.33° C | 36% | 1019 hPa | 0 mm | - | - | - |
| 1788534812 | 23.33° C | 36% | 1018.9 hPa | 0 mm | - | - | - |
| 1788534509 | 22.78° C | 37% | 1018.9 hPa | 0 mm | - | - | - |
| 1788534205 | 22.78° C | 37% | 1018.9 hPa | 0 mm | - | - | - |
| 1788533901 | 22.22° C | 39% | 1018.9 hPa | 0 mm | - | - | - |
| 1788533597 | 21.67° C | 38% | 1018.8 hPa | 0 mm | - | - | - |
| 1788533293 | 21.67° C | 36% | 1018.9 hPa | 0 mm | - | - | - |
| 1788532989 | 21.67° C | 41% | 1018.9 hPa | 0 mm | - | - | - |
| 1788532686 | 21.11° C | 40% | 1018.9 hPa | 0 mm | - | - | - |
| 1788532383 | 20.56° C | 41% | 1018.9 hPa | 0 mm | - | - | - |
| 1788532079 | 20° C | 43% | 1018.9 hPa | 0 mm | - | - | - |
| 1788531775 | 19.44° C | 43% | 1018.8 hPa | 0 mm | - | - | - |
| 1788531471 | 18.33° C | 45% | 1018.8 hPa | 0 mm | - | - | - |
| 1788531167 | 17.78° C | 48% | 1018.7 hPa | 0 mm | - | - | - |
| 1788530864 | 17.22° C | 53% | 1018.7 hPa | 0 mm | - | - | - |
| 1788530560 | 17.22° C | 54% | 1018.6 hPa | 0 mm | - | - | - |
| 1788530257 | 16.67° C | 54% | 1018.6 hPa | 0 mm | - | - | - |
| 1788529953 | 16.67° C | 54% | 1018.6 hPa | 0 mm | - | - | - |
| 1788529649 | 16.67° C | 54% | 1018.5 hPa | 0 mm | - | - | - |
| 1788529346 | 16.67° C | 55% | 1018.3 hPa | 0 mm | - | - | - |
| 1788529042 | 16.11° C | 55% | 1018.4 hPa | 0 mm | - | - | - |
* Rain latest hour (hover to see other rain measurements)
** Current wind speed in m/s (hover to see current wind gust speed)